When you browse on this site, cookies collect data to enhance your experience and personalize the content and advertising you see.
Visit our Privacy Policy to learn more. By continuing to use the site, you agree to this use of cookies and data.
  • In Lithuania
  • List of Countries
  • For 7 days
  • Water Temperature
  • Satellite Maps
  • Weather Map
  • Weather Widgets
  • user-avatar
    Login

    Hourly Weather Woodstock

    Today, 22 February, Friday

    Time Temperature Precipitation Wind Pressure Humidity
    00:00 -8°C° 0 mm 1 mps 743 mmHg 89%
    01:00 -10°C° 0 mm 2 mps 743 mmHg 90%
    02:00 -10°C° 0 mm 2 mps 744 mmHg 90%
    03:00 -10°C° 0 mm 2 mps 744 mmHg 90%
    04:00 -10°C° 0 mm 1 mps 744 mmHg 90%
    05:00 -10°C° 0 mm 1 mps 745 mmHg 90%
    06:00 -12°C° 0 mm 2 mps 745 mmHg 90%
    07:00 -9°C° 0 mm 2 mps 745 mmHg 89%
    08:00 -7°C° 0 mm 1 mps 745 mmHg 88%
    09:00 -4°C° 0 mm 1 mps 745 mmHg 87%
    10:00 -5°C° 0 mm 2 mps 745 mmHg 88%
    11:00 -4°C° 0 mm 2 mps 745 mmHg 89%
    12:00 -2°C° 0 mm 2 mps 745 mmHg 89%
    13:00 -2°C° 0 mm 2 mps 745 mmHg 90%
    14:00 -1°C° 0 mm 2 mps 745 mmHg 91%
    15:00 -1°C° 0 mm 2 mps 745 mmHg 91%
    16:00 -2°C° 0 mm 3 mps 744 mmHg 91%
    17:00 -5°C° 0 mm 3 mps 744 mmHg 91%
    18:00 -6°C° 0 mm 3 mps 744 mmHg 91%
    19:00 -6°C° 0 mm 3 mps 743 mmHg 90%
    20:00 -6°C° 0 mm 3 mps 743 mmHg 89%
    21:00 -7°C° 0 mm 3 mps 743 mmHg 88%
    22:00 -7°C° 0 mm 4 mps 742 mmHg 87%
    23:00 -5°C° 0 mm 4 mps 742 mmHg 86%

    Tomorrow, 23 February, Saturday

    Time Temperature Precipitation Wind Pressure Humidity
    00:00 -4°C° 0 mm 4 mps 741 mmHg 85%
    01:00 -3°C° 0 mm 4 mps 741 mmHg 85%
    02:00 -3°C° 0 mm 4 mps 740 mmHg 85%
    03:00 -3°C° 0 mm 4 mps 739 mmHg 84%
    04:00 -3°C° 0 mm 4 mps 738 mmHg 86%
    05:00 -3°C° 0 mm 4 mps 737 mmHg 87%
    06:00 -3°C° 0 mm 4 mps 737 mmHg 88%
    07:00 -2°C° 1 mm 5 mps 736 mmHg 90%
    08:00 -2°C° 1 mm 5 mps 736 mmHg 92%
    09:00 -3°C° 1 mm 6 mps 735 mmHg 94%
    10:00 -2°C° 1.3 mm 5 mps 734 mmHg 94%
    11:00 -2°C° 1.3 mm 4 mps 733 mmHg 95%
    12:00 -1°C° 1.3 mm 3 mps 733 mmHg 96%
    13:00 -2°C° 0.1 mm 4 mps 731 mmHg 97%
    14:00 -2°C° 0.1 mm 4 mps 730 mmHg 98%
    15:00 -2°C° 0.1 mm 4 mps 728 mmHg 99%
    16:00 -1°C° 0.1 mm 5 mps 726 mmHg 99%
    17:00 -2°C° 0.1 mm 6 mps 725 mmHg 98%
    18:00 -1°C° 0.1 mm 6 mps 723 mmHg 98%
    19:00 +1°C° 1.9 mm 6 mps 722 mmHg 98%
    20:00 +3°C° 1.9 mm 6 mps 720 mmHg 99%
    21:00 +4°C° 1.9 mm 6 mps 719 mmHg 99%
    22:00 +3°C° 0.3 mm 6 mps 718 mmHg 98%
    23:00 +2°C° 0.3 mm 5 mps 718 mmHg 97%

    Day after tomorrow, 24 February, Sunday

    Time Temperature Precipitation Wind Pressure Humidity
    00:00 +3°C° 0.3 mm 4 mps 717 mmHg 96%
    01:00 +1°C° 0.2 mm 5 mps 717 mmHg 94%
    02:00 +1°C° 0.2 mm 6 mps 716 mmHg 91%
    03:00 0°C° 0.2 mm 7 mps 716 mmHg 88%
    04:00 -1°C° 0 mm 8 mps 717 mmHg 86%
    05:00 -3°C° 0 mm 9 mps 718 mmHg 84%
    06:00 -3°C° 0 mm 10 mps 718 mmHg 82%
    07:00 -3°C° 0.1 mm 11 mps 720 mmHg 80%
    08:00 -5°C° 0.1 mm 12 mps 722 mmHg 77%
    09:00 -5°C° 0.1 mm 12 mps 724 mmHg 75%
    10:00 -5°C° 0 mm 12 mps 725 mmHg 75%
    11:00 -6°C° 0 mm 12 mps 727 mmHg 74%
    12:00 -6°C° 0 mm 12 mps 728 mmHg 73%
    13:00 -7°C° 0.1 mm 12 mps 729 mmHg 72%
    14:00 -8°C° 0.1 mm 12 mps 730 mmHg 72%
    15:00 -8°C° 0.1 mm 12 mps 731 mmHg 71%
    16:00 -10°C° 0 mm 12 mps 732 mmHg 71%
    17:00 -11°C° 0 mm 12 mps 733 mmHg 71%
    18:00 -12°C° 0 mm 11 mps 734 mmHg 71%
    19:00 -13°C° 0 mm 11 mps 736 mmHg 71%
    20:00 -14°C° 0 mm 11 mps 737 mmHg 71%
    21:00 -15°C° 0 mm 10 mps 738 mmHg 72%
    22:00 -17°C° 0 mm 10 mps 739 mmHg 72%
    23:00 -17°C° 0 mm 9 mps 740 mmHg 73%

    25 February, Monday

    Time Temperature Precipitation Wind Pressure Humidity
    00:00 -20°C° 0 mm 9 mps 740 mmHg 74%
    01:00 -19°C° 0 mm 8 mps 741 mmHg 74%
    02:00 -21°C° 0 mm 8 mps 742 mmHg 74%
    03:00 -21°C° 0 mm 7 mps 743 mmHg 74%
    04:00 -21°C° 0 mm 6 mps 744 mmHg 74%
    05:00 -22°C° 0 mm 6 mps 744 mmHg 74%
    06:00 -21°C° 0 mm 5 mps 745 mmHg 74%
    07:00 -21°C° 0 mm 5 mps 746 mmHg 73%
    08:00 -20°C° 0 mm 4 mps 746 mmHg 71%
    09:00 -20°C° 0 mm 4 mps 747 mmHg 69%
    10:00 -19°C° 0 mm 4 mps 747 mmHg 63%
    11:00 -16°C° 0 mm 3 mps 747 mmHg 57%
    12:00 -15°C° 0 mm 3 mps 747 mmHg 52%
    13:00 -15°C° 0 mm 3 mps 747 mmHg 56%
    14:00 -14°C° 0 mm 3 mps 747 mmHg 60%
    15:00 -14°C° 0 mm 3 mps 746 mmHg 65%
    16:00 -13°C° 0 mm 2 mps 746 mmHg 68%
    17:00 -13°C° 0 mm 2 mps 746 mmHg 72%
    18:00 -13°C° 0 mm 2 mps 746 mmHg 76%
    19:00 -13°C° 0 mm 2 mps 746 mmHg 77%
    20:00 -13°C° 0 mm 2 mps 747 mmHg 77%
    21:00 -13°C° 0 mm 2 mps 747 mmHg 78%
    22:00 -13°C° 0 mm 2 mps 747 mmHg 80%
    23:00 -13°C° 0 mm 2 mps 747 mmHg 82%

    26 February, Tuesday

    Time Temperature Precipitation Wind Pressure Humidity
    00:00 -13°C° 0 mm 2 mps 747 mmHg 83%
    01:00 -13°C° 0.1 mm 2 mps 746 mmHg 85%
    02:00 -13°C° 0.1 mm 2 mps 746 mmHg 86%
    03:00 -13°C° 0.1 mm 2 mps 746 mmHg 88%
    04:00 -14°C° 0.1 mm 3 mps 746 mmHg 88%
    05:00 -13°C° 0.1 mm 3 mps 746 mmHg 88%
    06:00 -14°C° 0.1 mm 4 mps 746 mmHg 88%
    07:00 -12°C° 0.1 mm 4 mps 745 mmHg 88%
    08:00 -11°C° 0.1 mm 4 mps 745 mmHg 87%
    09:00 -12°C° 0.1 mm 5 mps 745 mmHg 86%
    10:00 -10°C° 0 mm 5 mps 744 mmHg 80%
    11:00 -8°C° 0 mm 5 mps 743 mmHg 74%
    12:00 -6°C° 0 mm 5 mps 742 mmHg 68%
    13:00 -5°C° 0 mm 5 mps 741 mmHg 64%
    14:00 -2°C° 0 mm 5 mps 739 mmHg 59%
    15:00 -1°C° 0 mm 4 mps 738 mmHg 54%
    16:00 -2°C° 0 mm 4 mps 738 mmHg 60%
    17:00 -1°C° 0 mm 3 mps 737 mmHg 65%
    18:00 -2°C° 0 mm 2 mps 737 mmHg 71%
    19:00 -2°C° 0 mm 2 mps 736 mmHg 74%
    20:00 -2°C° 0 mm 2 mps 736 mmHg 77%
    21:00 +1°C° 0 mm 1 mps 735 mmHg 80%
    22:00 -1°C° 0 mm 2 mps 735 mmHg 83%
    23:00 -1°C° 0 mm 2 mps 735 mmHg 87%

    27 February, Wednesday

    Time Temperature Precipitation Wind Pressure Humidity
    00:00 0°C° 0 mm 3 mps 734 mmHg 91%
    01:00 -2°C° 0 mm 4 mps 735 mmHg 90%
    02:00 -4°C° 0 mm 5 mps 735 mmHg 88%
    03:00 -5°C° 0 mm 6 mps 735 mmHg 87%
    04:00 -6°C° 0 mm 6 mps 737 mmHg 85%
    05:00 -8°C° 0 mm 7 mps 738 mmHg 84%
    06:00 -9°C° 0 mm 7 mps 739 mmHg 82%
    07:00 -11°C° 0 mm 7 mps 739 mmHg 79%
    08:00 -12°C° 0 mm 7 mps 740 mmHg 76%
    09:00 -12°C° 0 mm 6 mps 741 mmHg 74%
    10:00 -11°C° 0 mm 6 mps 741 mmHg 71%
    11:00 -11°C° 0 mm 6 mps 742 mmHg 69%
    12:00 -10°C° 0 mm 5 mps 742 mmHg 66%
    13:00 -10°C° 0 mm 5 mps 742 mmHg 66%
    14:00 -8°C° 0 mm 5 mps 742 mmHg 65%
    15:00 -8°C° 0 mm 4 mps 742 mmHg 65%
    16:00 -9°C° 0 mm 4 mps 742 mmHg 69%
    17:00 -8°C° 0 mm 3 mps 742 mmHg 72%
    18:00 -8°C° 0 mm 2 mps 742 mmHg 76%
    19:00 -8°C° 0 mm 2 mps 742 mmHg 78%
    20:00 -9°C° 0 mm 2 mps 742 mmHg 79%
    21:00 -8°C° 0 mm 1 mps 742 mmHg 80%
    22:00 -8°C° 0 mm 1 mps 742 mmHg 80%
    23:00 -8°C° 0 mm 1 mps 742 mmHg 80%
    Show more